Location: Goettingen
(51.5300°N, 9.9433°E)
Time: 09:46:15
(UTC+01:00)

ISS - Pass Details

Date: 19 March 2023
Orbit: 414 x 423 km, 51.6° (Epoch: 20 March)

Event Time Altitude Azimuth Distance (km) Brightness Sun altitude
Rises 19:25:20 0° 225° (SW) 2,350 0.6 -9.2°
Reaches altitude 10° 19:27:33 10° 215° (SW) 1,489 -0.6 -9.5°
Maximum altitude 19:30:34 32° 151° (SSE) 744 -2.8 -10.0°
Enters shadow 19:32:44 16° 94° (E) 1,190 -2.1 -10.3°
